Location: Nachod
(50.4170°N, 16.1670°E)
Time: 20:53:56
(UTC+02:00)

ISS - Pass Details

Date: 04 July 2019
Orbit: 409 x 418 km, 51.6° (Epoch: 16 July)

Event Time Altitude Azimuth Distance (km) Brightness Sun altitude
Exits shadow 03:22:06 12° 183° (S) 1,339 -1.7 -10.2°
Maximum altitude 03:24:03 19° 142° (SE) 1,048 -1.9 -10.0°
Drops below altitude 10° 03:26:28 10° 95° (E) 1,476 -0.6 -9.8°
Sets 03:28:57 0° 77° (ENE) 2,340 0.8 -9.6°
